When you browse on this site, cookies collect data to enhance your experience and personalize the content and advertising you see.
Visit our Privacy Policy to learn more. By continuing to use the site, you agree to this use of cookies and data.
  • In Romania
  • List of Countries
  • For 7 days
  • Water Temperature
  • Weather Map
  • Weather Widgets
  • user-avatar
    Login

    Hourly Weather Bururi

    Today, 20 September, Friday

    Time Temperature Precipitation Wind Pressure Humidity
    00:00 +19°C° 0 mm 0 mps 616 mmHg 55%
    01:00 +19°C° 0 mm 0 mps 616 mmHg 55%
    02:00 +19°C° 0 mm 0 mps 616 mmHg 54%
    03:00 +19°C° 0 mm 0 mps 616 mmHg 55%
    04:00 +20°C° 0 mm 1 mps 616 mmHg 55%
    05:00 +20°C° 0 mm 1 mps 616 mmHg 56%
    06:00 +21°C° 0 mm 1 mps 617 mmHg 53%
    07:00 +21°C° 0 mm 2 mps 618 mmHg 51%
    08:00 +22°C° 0 mm 3 mps 619 mmHg 48%
    09:00 +24°C° 0 mm 3 mps 619 mmHg 44%
    10:00 +26°C° 0 mm 3 mps 619 mmHg 40%
    11:00 +27°C° 0 mm 3 mps 620 mmHg 36%
    12:00 +27°C° 0 mm 3 mps 619 mmHg 36%
    13:00 +27°C° 0 mm 3 mps 618 mmHg 35%
    14:00 +27°C° 0 mm 2 mps 617 mmHg 35%
    15:00 +27°C° 0 mm 2 mps 617 mmHg 37%
    16:00 +26°C° 0 mm 2 mps 616 mmHg 38%
    17:00 +25°C° 0 mm 1 mps 616 mmHg 40%
    18:00 +24°C° 0 mm 1 mps 616 mmHg 44%
    19:00 +23°C° 0 mm 1 mps 616 mmHg 48%
    20:00 +21°C° 0 mm 1 mps 616 mmHg 52%
    21:00 +22°C° 0 mm 1 mps 616 mmHg 50%
    22:00 +22°C° 0 mm 1 mps 617 mmHg 49%
    23:00 +20°C° 0 mm 0 mps 617 mmHg 47%

    Tomorrow, 21 September, Saturday

    Time Temperature Precipitation Wind Pressure Humidity
    00:00 +19°C° 0 mm 0 mps 616 mmHg 49%
    01:00 +20°C° 0 mm 1 mps 616 mmHg 51%
    02:00 +20°C° 0 mm 1 mps 615 mmHg 53%
    03:00 +19°C° 0 mm 1 mps 615 mmHg 53%
    04:00 +19°C° 0 mm 1 mps 615 mmHg 54%
    05:00 +19°C° 0 mm 1 mps 616 mmHg 54%
    06:00 +20°C° 0 mm 1 mps 617 mmHg 50%
    07:00 +21°C° 0 mm 2 mps 618 mmHg 47%
    08:00 +22°C° 0 mm 3 mps 619 mmHg 44%
    09:00 +24°C° 0 mm 3 mps 619 mmHg 41%
    10:00 +26°C° 0 mm 3 mps 619 mmHg 38%
    11:00 +27°C° 0 mm 3 mps 619 mmHg 35%
    12:00 +27°C° 0 mm 3 mps 618 mmHg 34%
    13:00 +27°C° 0 mm 3 mps 617 mmHg 34%
    14:00 +28°C° 0 mm 2 mps 617 mmHg 34%
    15:00 +27°C° 0 mm 2 mps 616 mmHg 36%
    16:00 +26°C° 0 mm 2 mps 616 mmHg 37%
    17:00 +26°C° 0 mm 1 mps 615 mmHg 39%
    18:00 +24°C° 0 mm 1 mps 615 mmHg 43%
    19:00 +23°C° 0 mm 1 mps 615 mmHg 47%
    20:00 +22°C° 0 mm 1 mps 616 mmHg 51%
    21:00 +21°C° 0 mm 1 mps 616 mmHg 50%
    22:00 +21°C° 0 mm 1 mps 616 mmHg 49%
    23:00 +21°C° 0 mm 1 mps 616 mmHg 49%

    Day after tomorrow, 22 September, Sunday

    Time Temperature Precipitation Wind Pressure Humidity
    00:00 +21°C° 0 mm 1 mps 615 mmHg 49%
    01:00 +20°C° 0 mm 1 mps 615 mmHg 49%
    02:00 +20°C° 0 mm 1 mps 615 mmHg 49%
    03:00 +20°C° 0 mm 1 mps 615 mmHg 50%
    04:00 +20°C° 0 mm 1 mps 615 mmHg 50%
    05:00 +20°C° 0 mm 1 mps 615 mmHg 50%
    06:00 +21°C° 0 mm 1 mps 616 mmHg 46%
    07:00 +23°C° 0 mm 2 mps 617 mmHg 43%
    08:00 +24°C° 0 mm 2 mps 618 mmHg 40%
    09:00 +26°C° 0 mm 3 mps 618 mmHg 38%
    10:00 +27°C° 0 mm 3 mps 619 mmHg 36%
    11:00 +28°C° 0 mm 3 mps 619 mmHg 34%
    12:00 +28°C° 0 mm 2 mps 618 mmHg 33%
    13:00 +28°C° 0 mm 2 mps 617 mmHg 33%
    14:00 +28°C° 0 mm 2 mps 617 mmHg 33%
    15:00 +27°C° 0 mm 2 mps 616 mmHg 34%
    16:00 +27°C° 0 mm 2 mps 616 mmHg 34%
    17:00 +27°C° 0 mm 2 mps 616 mmHg 35%
    18:00 +25°C° 0 mm 2 mps 616 mmHg 39%
    19:00 +24°C° 0 mm 1 mps 616 mmHg 43%
    20:00 +22°C° 0 mm 1 mps 616 mmHg 47%
    21:00 +22°C° 0 mm 1 mps 616 mmHg 47%
    22:00 +22°C° 0 mm 1 mps 616 mmHg 47%
    23:00 +22°C° 0 mm 1 mps 616 mmHg 47%

    23 September, Monday

    Time Temperature Precipitation Wind Pressure Humidity
    00:00 +22°C° 0 mm 1 mps 616 mmHg 47%
    01:00 +22°C° 0 mm 1 mps 616 mmHg 46%
    02:00 +22°C° 0 mm 1 mps 616 mmHg 46%
    03:00 +21°C° 0 mm 1 mps 616 mmHg 46%
    04:00 +19°C° 0 mm 0 mps 616 mmHg 47%
    05:00 +19°C° 0 mm 0 mps 616 mmHg 47%
    06:00 +22°C° 0 mm 1 mps 617 mmHg 45%
    07:00 +23°C° 0 mm 2 mps 618 mmHg 43%
    08:00 +24°C° 0 mm 3 mps 619 mmHg 41%
    09:00 +26°C° 0 mm 3 mps 619 mmHg 38%
    10:00 +27°C° 0 mm 3 mps 619 mmHg 35%
    11:00 +28°C° 0 mm 3 mps 619 mmHg 31%
    12:00 +28°C° 0 mm 3 mps 619 mmHg 30%
    13:00 +28°C° 0 mm 2 mps 618 mmHg 30%
    14:00 +28°C° 0 mm 2 mps 617 mmHg 29%
    15:00 +28°C° 0 mm 2 mps 617 mmHg 31%
    16:00 +27°C° 0 mm 2 mps 616 mmHg 33%
    17:00 +27°C° 0 mm 2 mps 616 mmHg 34%
    18:00 +25°C° 0 mm 1 mps 616 mmHg 38%
    19:00 +24°C° 0 mm 1 mps 616 mmHg 41%
    20:00 +22°C° 0 mm 1 mps 616 mmHg 45%
    21:00 +22°C° 0 mm 1 mps 616 mmHg 44%
    22:00 +22°C° 0 mm 1 mps 616 mmHg 44%
    23:00 +22°C° 0 mm 1 mps 617 mmHg 44%

    24 September, Tuesday

    Time Temperature Precipitation Wind Pressure Humidity
    00:00 +21°C° 0 mm 1 mps 616 mmHg 45%
    01:00 +21°C° 0 mm 1 mps 616 mmHg 45%
    02:00 +21°C° 0 mm 1 mps 615 mmHg 46%
    03:00 +20°C° 0 mm 1 mps 615 mmHg 45%
    04:00 +20°C° 0 mm 1 mps 616 mmHg 45%
    05:00 +20°C° 0 mm 1 mps 616 mmHg 44%
    06:00 +21°C° 0 mm 2 mps 617 mmHg 42%
    07:00 +23°C° 0 mm 2 mps 618 mmHg 39%
    08:00 +24°C° 0 mm 2 mps 619 mmHg 37%
    09:00 +26°C° 0 mm 3 mps 619 mmHg 35%
    10:00 +27°C° 0 mm 3 mps 619 mmHg 33%
    11:00 +28°C° 0 mm 3 mps 619 mmHg 31%
    12:00 +29°C° 0 mm 3 mps 619 mmHg 29%
    13:00 +29°C° 0 mm 3 mps 618 mmHg 28%
    14:00 +29°C° 0 mm 3 mps 617 mmHg 26%
    15:00 +28°C° 0 mm 3 mps 617 mmHg 28%
    16:00 +28°C° 0 mm 2 mps 616 mmHg 30%
    17:00 +27°C° 0 mm 1 mps 616 mmHg 32%
    18:00 +25°C° 0 mm 1 mps 616 mmHg 35%
    19:00 +24°C° 0 mm 1 mps 616 mmHg 37%
    20:00 +22°C° 0 mm 1 mps 616 mmHg 40%
    21:00 +22°C° 0 mm 1 mps 616 mmHg 41%
    22:00 +22°C° 0 mm 1 mps 616 mmHg 41%
    23:00 +21°C° 0 mm 1 mps 616 mmHg 41%

    25 September, Wednesday

    Time Temperature Precipitation Wind Pressure Humidity
    00:00 +21°C° 0 mm 1 mps 616 mmHg 42%
    01:00 +21°C° 0 mm 1 mps 615 mmHg 43%
    02:00 +21°C° 0 mm 1 mps 615 mmHg 43%
    03:00 +21°C° 0 mm 1 mps 615 mmHg 43%
    04:00 +21°C° 0 mm 1 mps 616 mmHg 43%
    05:00 +20°C° 0 mm 1 mps 616 mmHg 44%
    06:00 +20°C° 0 mm 2 mps 617 mmHg 42%
    07:00 +21°C° 0 mm 2 mps 618 mmHg 40%
    08:00 +23°C° 0 mm 2 mps 619 mmHg 38%
    09:00 +25°C° 0 mm 3 mps 619 mmHg 35%
    10:00 +26°C° 0 mm 3 mps 619 mmHg 33%
    11:00 +28°C° 0 mm 3 mps 619 mmHg 30%
    12:00 +28°C° 0 mm 3 mps 618 mmHg 29%
    13:00 +28°C° 0 mm 3 mps 618 mmHg 29%
    14:00 +29°C° 0 mm 3 mps 617 mmHg 28%
    15:00 +28°C° 0 mm 3 mps 616 mmHg 30%
    16:00 +27°C° 0 mm 2 mps 616 mmHg 32%
    17:00 +26°C° 0 mm 2 mps 616 mmHg 34%
    18:00 +25°C° 0 mm 1 mps 615 mmHg 37%
    19:00 +23°C° 0 mm 1 mps 615 mmHg 41%
    20:00 +22°C° 0 mm 1 mps 615 mmHg 44%
    21:00 +22°C° 0 mm 1 mps 615 mmHg 43%
    22:00 +21°C° 0 mm 1 mps 616 mmHg 42%
    23:00 +21°C° 0 mm 1 mps 616 mmHg 41%
    Show more